Content
SEND FEEDBACK

Daily
Averages
Monthly
Summary
Mexico

PLAYA DEL CARMEN, QUINTANA ROO


Home > North America > Mexico > Quintana Roo
Elevation: 30 feet     Latitude: 20 38N     Longitude: 087 04W

WEATHER
 
SELECT A DAY
Number of Records: 206,333;   Date Range: 2/21/06 - 12/23/14
 
SHARE

PRINT THIS DATA

[ ← Previous Day ]
WEATHER ALMANAC - NOVEMBER 1, 2013
[ Next Day → ]
[ °C ]   °F
Weather ElementAverageHighLow
Temperature77.7 °F87.8 °F (12:35 pm)69.8 °F (6:35 am)
Dewpoint45.2 °F75.2 °F (10:55 pm) (7:00 pm)
Humidity64.1 %100 % (3:15 am)35 % (1:15 pm)
Barometer29.98 in30.04 in (12:35 am)29.92 in (3:55 pm)
Wind Speed6.3 mph13.8 mph (12:15 pm)
Wind Gust19.6 mph (12:55 pm)
Weather ElementAverage
Visibility9.9 mi
Wind DirectionSSE (171.3 °)

Weather ElementTotal
Precipitation---
Cooling Degree Days13.8 (Base 65)
Growing Degree Days28.8 (Base 50)
Averaged from 67 records on November 1, 2013
WEATHER CONDITIONS BREAKOUT
WIND DIRECTION BREAKOUT
WEATHER BY HOUR - NOVEMBER 1, 2013
[ °C ]   °F
Local TimeTemperatureDewpointHumidityBarometerVisibilityWind DirectionWind SpeedGust SpeedPrecipitationEventsConditions
12:35 AM75.2 °F66.2 °F73 %30.04 in10.0 miESE (120°)3.5 mphMostly Cloudy
12:55 AM75.2 °F66.2 °F73 %30.04 in10.0 miSE (140°)4.6 mphScattered Clouds
1:15 AM75.2 °F66.2 °F73 %30.03 in10.0 miSE (140°)3.5 mphScattered Clouds
1:35 AM73.4 °F68.0 °F83 %30.02 in10.0 miSE (130°)3.5 mphClear
1:55 AM73.4 °F68.0 °F83 %30.02 in10.0 miCalmClear
2:15 AM73.4 °F68.0 °F83 %30.02 in10.0 miSE (140°)3.5 mphScattered Clouds
2:35 AM73.4 °F68.0 °F83 %30.02 in10.0 miSSE (150°)4.6 mphMostly Cloudy
2:55 AM73.4 °F71.6 °F94 %30.01 in10.0 miSE (140°)3.5 mphScattered Clouds
3:15 AM71.6 °F71.6 °F100 %30.01 in10.0 miSE (140°)4.6 mphClear
3:35 AM71.6 °F0.0 °F30.00 in10.0 miSE (140°)3.5 mphClear
3:55 AM71.6 °F0.0 °F30.00 in10.0 miSE (140°)3.5 mphClear
4:15 AM71.6 °F0.0 °F29.99 in10.0 miSE (140°)4.6 mphClear
4:35 AM71.6 °F0.0 °F30.00 in10.0 miSE (140°)3.5 mphClear
4:55 AM71.6 °F0.0 °F29.99 in10.0 miSE (140°)8.1 mphClear
5:15 AM71.6 °F0.0 °F29.99 in10.0 miSSE (150°)4.6 mphClear
5:35 AM71.6 °F0.0 °F29.99 in10.0 miCalmClear
5:55 AM71.6 °F0.0 °F30.00 in10.0 miCalmClear
6:15 AM71.6 °F0.0 °F30.01 in10.0 miCalmClear
6:35 AM69.8 °F0.0 °F30.01 in10.0 miCalmClear
6:55 AM69.8 °F0.0 °F30.01 in7.0 miSSE (150°)3.5 mphScattered Clouds
7:15 AM69.8 °F0.0 °F30.00 in10.0 miCalmClear
7:35 AM69.8 °F0.0 °F30.01 in10.0 miCalmClear
7:55 AM69.8 °F0.0 °F30.02 in7.0 miSSE (150°)3.5 mphClear
8:15 AM71.6 °F0.0 °F30.02 in10.0 miSE (140°)4.6 mphClear
8:35 AM71.6 °F0.0 °F30.02 in10.0 miSSE (150°)5.8 mphClear
8:55 AM73.4 °F0.0 °F30.01 in10.0 miSSE (160°)5.8 mphClear
9:15 AM75.2 °F0.0 °F30.02 in10.0 miSouth (170°)6.9 mphClear
9:35 AM77.0 °F69.8 °F78 %30.02 in10.0 miSouth (180°)6.9 mphClear
9:55 AM78.8 °F68.0 °F69 %30.02 in10.0 miSouth (190°)9.2 mphClear
10:15 AM80.6 °F68.0 °F65 %30.02 in10.0 miSouth (180°)9.2 mphClear
10:35 AM82.4 °F68.0 °F62 %30.01 in10.0 miSouth (170°)11.5 mphClear
10:55 AM82.4 °F66.2 °F58 %30.00 in10.0 miSouth (180°)11.5 mphClear
11:15 AM84.2 °F64.4 °F51 %29.99 in10.0 miSouth (180°)10.4 mphClear
11:35 AM84.2 °F62.6 °F48 %29.99 in10.0 miSouth (190°)11.5 mph18.4 mphClear
11:55 AM86.0 °F59.0 °F40 %29.99 in10.0 miSSE (160°)10.4 mphClear
12:15 PM86.0 °F59.0 °F40 %29.99 in10.0 miSouth (190°)13.8 mphClear
12:35 PM87.8 °F59.0 °F38 %29.98 in10.0 miSSW (210°)11.5 mphClear
12:55 PM87.8 °F59.0 °F38 %29.97 in10.0 miSW (230°)12.7 mph19.6 mphClear
1:15 PM87.8 °F57.2 °F35 %29.96 in10.0 miSSW (200°)11.5 mph16.1 mphClear
1:35 PM87.8 °F57.2 °F35 %29.95 in10.0 miSW (220°)13.8 mphClear
1:55 PM87.8 °F57.2 °F35 %29.94 in10.0 miSSW (200°)11.5 mphClear
2:15 PM87.8 °F57.2 °F35 %29.94 in10.0 miSSW (200°)10.4 mphClear
2:35 PM87.8 °F59.0 °F38 %29.94 in10.0 miSW (230°)12.7 mphScattered Clouds
2:55 PM86.0 °F64.4 °F48 %29.94 in10.0 miWest (280°)9.2 mph18.4 mphScattered Clouds
3:15 PM86.0 °F64.4 °F48 %29.94 in10.0 miWSW (250°)12.7 mphMostly Cloudy
3:35 PM86.0 °F66.2 °F51 %29.93 in10.0 miWest (260°)12.7 mph16.1 mphMostly Cloudy
3:55 PM86.0 °F64.4 °F48 %29.92 in10.0 miWest (280°)11.5 mph18.4 mphOvercast
4:15 PM86.0 °F60.8 °F43 %29.92 in10.0 miWSW (240°)11.5 mphScattered Clouds
5:55 PM84.2 °F64.4 °F51 %29.92 in10.0 miWSW (250°)8.1 mphScattered Clouds
6:15 PM82.4 °F64.4 °F54 %29.92 in10.0 miWest (260°)9.2 mphClear
6:35 PM80.6 °F66.2 °F61 %29.92 in10.0 miWest (260°)6.9 mphClear
6:55 PM78.8 °F68.0 °F69 %29.92 in10.0 miSW (230°)4.6 mphClear
7:15 PM78.8 °F69.8 °F74 %29.93 in10.0 miWest (260°)4.6 mphClear
7:35 PM77.0 °F69.8 °F78 %29.93 in10.0 miWSW (240°)3.5 mphClear
7:55 PM77.0 °F69.8 °F78 %29.93 in10.0 miSW (230°)4.6 mphClear
8:15 PM77.0 °F69.8 °F78 %29.93 in10.0 miSW (220°)3.5 mphClear
8:35 PM77.0 °F69.8 °F78 %29.93 in10.0 miSSW (210°)4.6 mphClear
8:55 PM77.0 °F69.8 °F78 %29.94 in10.0 miSSW (200°)3.5 mphClear
9:15 PM77.0 °F68.0 °F74 %29.94 in10.0 miSSW (210°)4.6 mphClear
9:35 PM77.0 °F68.0 °F74 %29.93 in10.0 miSSW (200°)4.6 mphClear
9:55 PM75.2 °F69.8 °F83 %29.94 in10.0 miSSW (210°)5.8 mphClear
10:15 PM75.2 °F69.8 °F83 %29.94 in10.0 miSSW (200°)3.5 mphClear
10:35 PM75.2 °F71.6 °F89 %29.94 in10.0 miSSW (200°)4.6 mphClear
10:55 PM75.2 °F75.2 °F100 %29.94 in10.0 miSSW (210°)4.6 mphClear
11:15 PM75.2 °F0.0 °F29.94 in10.0 miSSW (210°)4.6 mphClear
11:35 PM75.2 °F0.0 °F29.94 in10.0 miSouth (190°)4.6 mphClear
11:55 PM75.2 °F0.0 °F29.95 in10.0 miSSW (200°)4.6 mphClear
Hourly data recorded from KPCM, located miles away from Playa del Carmen, Quintana Roo







STORIES FROM OUR PARTNERS